2023/02/09 00:00:00,92.0, 0.6
2023/02/09 00:10:00,92.0, 0.4
2023/02/09 00:20:00,91.9, 0.6
2023/02/09 00:30:00,91.9, 0.5
2023/02/09 00:40:00,92.0, 0.6
2023/02/09 00:50:00,92.1, 0.5
2023/02/09 01:00:00,92.0, 1.3
2023/02/09 01:10:00,91.9, 0.8
2023/02/09 01:20:00,91.9, 0.7
2023/02/09 01:30:00,91.8, 0.8
2023/02/09 01:40:00,91.8, 0.6
2023/02/09 01:50:00,91.8, 1.0
2023/02/09 02:00:00,91.8, 1.0
2023/02/09 02:10:00,91.8, 1.0
2023/02/09 02:20:00,91.7, 0.7
2023/02/09 02:30:00,91.7, 1.1
2023/02/09 02:40:00,91.7, 0.9
2023/02/09 02:50:00,91.7, 0.7
2023/02/09 03:00:00,91.7, 0.6
2023/02/09 03:10:00,91.7, 0.9
2023/02/09 03:20:00,91.6, 0.9
2023/02/09 03:30:00,91.6, 0.9
2023/02/09 03:40:00,91.6, 0.8
2023/02/09 03:50:00,91.6, 0.6
2023/02/09 04:00:00,91.6, 0.9
2023/02/09 04:10:00,91.6, 0.9
2023/02/09 04:20:00,91.6, 0.9
2023/02/09 04:30:00,91.9, 0.7
2023/02/09 04:40:00,92.1, 0.6
2023/02/09 04:50:00,92.1, 0.5
2023/02/09 05:00:00,92.1, 0.6
2023/02/09 05:10:00,92.1, 0.7
2023/02/09 05:20:00,92.2, 0.6
2023/02/09 05:30:00,92.2, 0.3
2023/02/09 05:40:00,92.2, 0.4
2023/02/09 05:50:00,92.2, 0.5
2023/02/09 06:00:00,92.2, 0.4
2023/02/09 06:10:00,92.1, 0.5
2023/02/09 06:20:00,92.1, 1.2
2023/02/09 06:30:00,92.0, 0.1
2023/02/09 06:40:00,92.0, 0.2
2023/02/09 06:50:00,92.0, 0.0
2023/02/09 07:00:00,92.0, 0.7
2023/02/09 07:10:00,92.1, 0.2
2023/02/09 07:20:00,92.1, 0.0
2023/02/09 07:30:00,92.1, 0.4
2023/02/09 07:40:00,92.1, 0.5
2023/02/09 07:50:00,92.1, 0.1
2023/02/09 08:00:00,92.1, 0.4
2023/02/09 08:10:00,92.1, 0.6
2023/02/09 08:20:00,92.2, 0.6
2023/02/09 08:30:00,92.2, 1.5
2023/02/09 08:40:00,92.2, 1.7
2023/02/09 08:50:00,92.2, 3.2
2023/02/09 09:00:00,92.1, 3.4
2023/02/09 09:10:00,92.0, 3.3
2023/02/09 09:20:00,92.0, 3.4
2023/02/09 09:30:00,92.0, 3.8
2023/02/09 09:40:00,91.9, 4.6
2023/02/09 09:50:00,92.0, 4.0
2023/02/09 10:00:00,92.0, 4.4
2023/02/09 10:10:00,91.9, 4.1
2023/02/09 10:20:00,92.0, 5.1
2023/02/09 10:30:00,91.9, 6.2
2023/02/09 10:40:00,91.8, 6.9
2023/02/09 10:50:00,91.8, 7.0
2023/02/09 11:00:00,91.7, 7.6
2023/02/09 11:10:00,91.7, 8.1
2023/02/09 11:20:00,91.6, 8.6
2023/02/09 11:30:00,91.5, 8.9
2023/02/09 11:40:00,91.4,10.0
2023/02/09 11:50:00,91.0, 8.6
2023/02/09 12:00:00,90.8, 7.1
2023/02/09 12:10:00,91.3, 7.7
2023/02/09 12:20:00,91.2, 8.7
2023/02/09 12:30:00,91.4, 9.3
2023/02/09 12:40:00,91.0, 9.6
2023/02/09 12:50:00,90.8, 8.6
2023/02/09 13:00:00,91.0, 8.5
2023/02/09 13:10:00,91.0,10.9
2023/02/09 13:20:00,91.0,11.2
2023/02/09 13:30:00,91.3,13.3
2023/02/09 13:40:00,91.2,11.4
2023/02/09 13:50:00,91.3,14.0
2023/02/09 14:00:00,90.9,11.4
2023/02/09 14:10:00,90.3, 8.4
2023/02/09 14:20:00,90.3, 9.6
2023/02/09 14:30:00,90.8,14.0
2023/02/09 14:40:00,90.3,10.8
2023/02/09 14:50:00,90.0, 7.1
2023/02/09 15:00:00,90.2, 9.2
2023/02/09 15:10:00,90.4,14.5
2023/02/09 15:20:00,90.3,15.8
2023/02/09 15:30:00,89.8, 9.6
2023/02/09 15:40:00,89.9, 7.8
2023/02/09 15:50:00,90.1,16.2
2023/02/09 16:00:00,89.9,15.9
2023/02/09 16:10:00,89.7,10.1
2023/02/09 16:20:00,89.7, 7.0
2023/02/09 16:30:00,89.7, 5.9
2023/02/09 16:40:00,89.6, 4.9
2023/02/09 16:50:00,89.6, 4.5
2023/02/09 17:00:00,89.7, 4.0
2023/02/09 17:10:00,89.6, 3.4
2023/02/09 17:20:00,89.4, 2.8
2023/02/09 17:30:00,89.3, 2.1
2023/02/09 17:40:00,89.2, 1.6
2023/02/09 17:50:00,89.1, 1.3
2023/02/09 18:00:00,88.9, 0.4
2023/02/09 18:10:00,88.7, 0.3
2023/02/09 18:20:00,88.6,-0.1
2023/02/09 18:30:00,88.5,-0.2
2023/02/09 18:40:00,88.5,-0.1
2023/02/09 18:50:00,88.5,-0.1
2023/02/09 19:00:00,88.5,-0.6
2023/02/09 19:10:00,88.7,-0.2
2023/02/09 19:20:00,88.6,-0.4
2023/02/09 19:30:00,88.4, 0.5
2023/02/09 19:40:00,88.4, 0.8
2023/02/09 19:50:00,88.4, 1.2
2023/02/09 20:00:00,88.4, 1.4
2023/02/09 20:10:00,88.3, 1.2
2023/02/09 20:20:00,88.4, 1.3
2023/02/09 20:30:00,88.4, 1.2
2023/02/09 20:40:00,88.4, 1.4
2023/02/09 20:50:00,88.4, 1.1
2023/02/09 21:00:00,88.4, 1.1
2023/02/09 21:10:00,88.3, 0.9
2023/02/09 21:20:00,88.4, 0.4
2023/02/09 21:30:00,88.4, 0.3
2023/02/09 21:40:00,88.4, 0.3
2023/02/09 21:50:00,88.5, 0.2
2023/02/09 22:00:00,88.6, 0.0
2023/02/09 22:10:00,88.5,-0.1
2023/02/09 22:20:00,88.5,-0.2
2023/02/09 22:30:00,88.5,-0.1
2023/02/09 22:40:00,88.4,-0.3
2023/02/09 22:50:00,88.4,-0.2
2023/02/09 23:00:00,88.4,-0.4
2023/02/09 23:10:00,88.5,-0.3
2023/02/09 23:20:00,88.4,-0.4
2023/02/09 23:30:00,88.3,-0.3
2023/02/09 23:40:00,88.3,-0.3
2023/02/09 23:50:00,88.3,-0.4
